Погода в Бекишеве

Россия / Омская область     55°34′53″N   72°42′25″E
темп.,
°C
ветер,
м/с
пор.,
м/с
влажн.,
%
обл.,
%
осадки,
мм/ч
давл.,
гПа
погр.,
м
19 апреля, пн
пн1900:00−5с912605 0.1 10221255
03:00−7с711565 0.0 10251058
06:00−8с795469 0.0 10281053
09:00−7ссз684580 0.0 10291228
12:00−4ссз6735100 0.0 10301668
15:00−3ссз6830100 0.0 10292031
18:00−2с6831100 0.0 10292179
21:00−5ссв47435 0.0 1031797
20 апреля, вт
вт2000:00−5ссв36505 0.0 10321161
03:00−6с35514 0.0 10321110
06:00−7ссз24560 0.0 1033420
09:00−5ссз34435 0.0 10331057
12:00−2зсз44330 0.0 10311342
15:00+1з56285 0.0 10291584
18:00+2з78305 0.0 10271604
21:000зюз5114988 0.0 1026288
21 апреля, ср
ср2100:000зюз71552100 0.0 1023464
03:00+1з71457100 0.0 1021466
06:000сз51082100 0.0 1022463
09:00+1ссз686639 0.0 1024868
12:00+4с795061 0.0 10251435
15:00+5с794760 0.0 10271501
18:00+5ссв784675 0.0 10301632
21:00+1ссв59651 0.0 1033432
22 апреля, чт
чт2200:00−1св48805 0.0 1036397
03:00−2св37805 0.0 1038333
06:00−2св36815 0.0 1040284
09:00+1в45545 0.0 1042739
12:00+4в33415 0.0 10431234
15:00+6вюв22375 0.0 10431423
18:00+7юв33371 0.0 10421417
21:00+3юв33533 0.0 104441
23 апреля, пт
пт2300:00+1юв37642 0.0 1044132
03:000ююв37695 0.0 1044139
06:00−1ююв37730 0.0 1044158
09:00+4ююв56510 0.0 1045535
12:00+7ююв45411 0.0 10441257
15:00+9ююв44350 0.0 10421460
18:00+9ююв44333 0.0 10411505
21:00+5юв36493 0.0 104195